www.pogodaiklimat.ru

Погода и климат >> Архив погоды >> Украина >> Волноваха


ПОГОДА в Волновахе

  • Прогноз погоды в Волновахе
  • Монитор погоды в Волновахе

АРХИВ ПОГОДЫ в Волновахе

Время (UTC), дата Ветер
(напр.,м/с)
 
Видим.   Явления Облачность Т
(С)
Тd
(С)
f
(%)
Тe
(С)
Тes
(С)
Комфортность P
(гПа)
Po
(гПа)
Тmin
(С)
Tmax
(С)
R
(мм)
R24
(мм)
S
(см)
15 12.08 В 2 20 км 3/3 600 м
[Cu hum]
+26.6 +13.2 44 +29 +30 жарко 1017.4 986.9
18 12.08 штиль 0 20 км ясно +21.3 +14.1 63 +24 +24 комфорт 1018.8 987.7 +27.2
21 12.08 ЮВ 1 20 км ясно +18.4 +12.5 68 +20 +20 1019.7 988.3
00 13.08 штиль 0 20 км ясно +16.6 +11.3 71 +17 +17 1020.0 988.4
03 13.08 штиль 0 20 км ясно +16.6 +11.0 69 +17 +17 1020.2 988.6
06 13.08 Ю 2 20 км ясно +22.9 +10.9 47 +25 +32 комфорт 1019.6 988.7 +16.0
09 13.08 ЮВ 2 20 км ясно +26.4 +10.2 36 +27 +42 жарко 1019.0 988.4
12 13.08 В 3 20 км ясно +27.8 +11.1 35 +29 +37 жарко 1017.6 987.2
15 13.08 В 2 20 км ясно +27.2 +10.4 35 +28 +29 жарко 1016.7 986.3
18 13.08 штиль 0 20 км ясно +21.2 +12.2 56 +23 +23 комфорт 1017.4 986.3 +28.1
21 13.08 штиль 0 20 км ясно +18.6 +11.3 62 +19 +19 1017.7 986.4
00 14.08 С 1 20 км ясно +17.2 +10.9 66 +18 +18 1017.4 985.9
03 14.08 штиль 0 20 км ясно +16.6 +9.8 64 +17 +17 1017.2 985.7
06 14.08 ЮВ 1 20 км ясно +23.9 +12.0 47 +26 +34 жарко 1016.6 985.8 +16.5
09 14.08 ЮВ 3 20 км ясно +28.0 +10.2 33 +28 +41 жарко 1014.7 984.4
12 14.08 ЮВ 4 20 км ясно +29.9 +9.3 28 +30 +37 жарко 1012.9 982.9
15 14.08 ЮВ 3 20 км ясно +29.9 +8.8 27 +29 +30 жарко 1011.8 981.8
18 14.08 ЮВ 3 20 км ясно +24.1 +7.8 35 +24 +24 комфорт 1012.1 981.5 +30.2
21 14.08 ЮВ 2 20 км ясно +21.6 +8.4 43 +23 +23 комфорт 1011.6 980.8
00 15.08 ЮВ 1 20 км ясно +18.3 +8.1 51 +20 +20 1011.4 980.2
03 15.08 В 3 20 км ясно +16.4 +8.4 59 +16 +16 1011.4 980.0
06 15.08 ЮВ 5 20 км 1/0
[Ci fib]
+25.2 +4.8 27 +25 +28 комфорт 1009.8 979.4 +15.9
09 15.08 ЮВ 5 20 км 4/0
[Ci fib]
+29.6 +6.3 23 +28 +35 жарко 1008.2 978.3
12 15.08 Ю 5 20 км 9/0
[Cs]
+31.6 +4.5 18 +29 +34 жарко 1006.6 976.9
15 15.08 Ю 2 20 км 8/0
[Ac trans Cc]
+31.0 +4.6 19 +29 +30 жарко 1006.4 976.7
18 15.08 В 1 20 км 8/0
[Cc]
+24.2 +10.5 42 +25 +25 комфорт 1006.8 976.4 +32.3
21 15.08 ЮВ 1 20 км 9/0
[Ac trans Cc]
+22.9 +8.8 41 +24 +24 комфорт 1006.7 976.1
00 16.08 ЮВ 1 20 км 10/0
[Ac lent]
+23.3 +9.2 41 +25 +25 комфорт 1006.6 976.1
03 16.08 Ю 1 20 км 10/3 600 м
[Cb cap Ac und]
+21.2 +9.8 48 +23 +23 комфорт 1006.7 976.0
06 16.08 ЮВ 1 20 км 9/0
[Ac trans Ci sp]
+23.9 +11.9 47 +26 +31 жарко 1006.5 976.1 +21.0
09 16.08 СЗ 1 20 км 10/0
[Ac trans Ci sp]
+26.0 +13.6 46 +28 +37 жарко 1006.4 976.2
12 16.08 СВ 1 20 км 9/0
[Ac trans Ci sp]
+25.8 +15.5 53 +29 +35 душно 1006.0 975.8
18 16.08 штиль 0 20 км 9/0
[Ac trans Ci fib]
+21.8 +15.3 67 +25 +25 комфорт 1007.8 977.1 +26.7
21 16.08 З 2 10 км слаб. ливневой дождь 10/10 600 м
[Cb cap]
+20.6 +17.9 85 +25 +25 комфорт 1009.2 978.3
00 17.08 штиль 0 20 км {ливн. осадки} 10/3 600 м
[Cb cap Ac und]
+19.7 +17.6 88 +22 +22 комфорт 1007.7 976.8
03 17.08 СЗ 1 20 км 10/0
[Ac lent]
+19.4 +17.9 91 +23 +23 комфорт 1008.1 977.1
06 17.08 СЗ 2 20 км {ливн. осадки} 9/6 600 м
[Cb cap Ac trans]
+19.0 +17.4 90 +21 +23 комфорт 1009.1 978.1 +18.5 2
12 17.08 С 2 20 км 4/4 1000 м
[Cu med, cong]
+23.6 +16.8 66 +27 +33 жарко 1008.5 978.0
18 17.08 СЗ 1 20 км 3/0
[Ac trans Ci fib]
+19.4 +14.4 73 +22 +22 комфорт 1010.0 979.0 +24.1
00 18.08 С 1 10 км 3/0
[Ac trans]
+15.2 +13.4 89 +16 +16 1010.9 979.4
06 18.08 С 1 20 км 8/0
[Ci fib]
+17.9 +14.5 80 +19 +26 1011.3 980.1 +13.5
12 18.08 СВ 1 20 км 3/1 600 м
[Cu hum Cc]
+24.5 +12.4 47 +26 +36 жарко 1011.2 980.7
18 18.08 С 1 20 км зарница 10/4 600 м
[Cb cap Ac und]
+20.5 +13.8 65 +24 +24 комфорт 1013.2 982.2 +24.9
00 19.08 СВ 2 20 км {ливн. осадки} 1/0
[Ac trans]
+17.0 +13.5 80 +17 +17 1015.1 983.7
06 19.08 В 1 20 км 9/0
[Ac trans Ci fib]
+19.5 +15.1 76 +22 +26 комфорт 1016.5 985.3 +15.6 0.0

 

Местоположение метеостанции Волноваха (Донецкая область, Украина): широта 47.62 долгота 37.35 высота над уровнем моря 267 м.

В архиве по умолчанию представлена погода в Волновахе за последнюю неделю. Архивные данные за месяц целиком и за предыдущие месяцы, начиная с января 2011 года, Вы можете получить, выбрав интересующий диапазон дат из раскрывающегося списка и нажав кнопку "Ввод!".


*Определитесь, кто Вы:
робот инопланетянин человек

Внимание! Время в таблицах - всемирное. Для получения местного времени необходимо прибавить поправку, которая равна 2 ч.

Смотрите также архив погоды в соседних городах и на ближайших метеорологических станциях:

Погода в Мариуполе (Донецкая область, Украина) (67 км)
Погода в Гуляйполе (Запорожская область, Украина) (83 км)
Погода в Кирилловке (Запорожская область, Украина) (83 км)
Погода в Чаплино (Днепропетровская область, Украина) (101 км)
Погода в Бердянске (Запорожская область, Украина) (106 км)
Погода в Должанке (Краснодарский край, Россия) (108 км)
Погода в Ейске (Краснодарский край, Россия) (115 км)
Погода в Матвеевом Кургане (Ростовская область, Россия) (115 км)
Погода в Артемовске (Донецкая область, Украина) (119 км)
Погода в Александрополе (Днепропетровская область, Украина) (124 км)

Пояснения к столбцам:

Ветер - указаны скорость ветра в м/с - средняя за 10 мин, порывы в срок и между сроками (в фигурных скобках) и направление, откуда дует ветер: С - северный, СВ - северо-восточный, В - восточный, ЮВ - юго-восточный, Ю - южный, ЮЗ - юго-западный, З - западный, СЗ - северо-западный.
Видимость - горизонтальная дальность видимости в метрах или километрах. При видимости от 1 до 10 км при отсутствии осадков обычно наблюдается дымка, при ухудшении видимости до 1 км и менее - туман. В сухую погоду видимость может ухудшаться дымом, пылью или мглою.
Явления - указаны атмосферные явления, наблюдавшиеся в срок или в последний час перед сроком; фигурными скобками обозначены явления, наблюдавшиеся между сроками (за 1-3 часа до срока); квадратными скобками обозначены град или гололедные отложения с указанием их диаметра в мм.
Облачность - указаны через наклонную черту общая и нижняя облачность в баллах и высота нижней границы облаков в метрах; квадратными скобками обозначены формы облаков: Ci - перистые, Cs - перисто-слоистые, Cc - перисто-кучевые, Ac - высококучевые, As - высокослоистые, Sc - слоисто-кучевые, Ns - слоисто-дождевые, Cu - кучевые, Cb - кучево-дождевые. Подробнее классификацию облаков см. в Атласе облаков (PDF).
T - Температура воздуха - температура, измеренная на высоте 2 м над землей.
Td - Температура точки росы - температура, при понижении до которой содержащийся в воздухе водяной пар достигнет насыщения.
f - Относительная влажность воздуха - влажноcть воздуха, измеренная на высоте 2 м над землей.
Te - Эффективная температура - температура, которую ощущает одетый по сезону человек в тени. Характеристика душности погоды. При расчете учитывается влияние влажности воздуха и скорости ветра на теплоощущения человека.
Tes - Эффективная температура на солнце - температура, которую ощущает человек, с поправкой на солнечный нагрев. Характеристика знойности погоды. Зависит от высоты солнца над горизонтом, облачности и скорости ветра. Ночью, в пасмурную погоду, а также при ветре 12 м/с и более поправка равна нулю.
P - Атмосферное давление - приведенное к уровню моря атмосферное давление.
Po - Атмосферное давление - измеренное на уровне метеостанции атмосферное давление.
Tmin - Минимальная температура - минимум температуры воздуха на высоте 2 м над землей.
Tmax - Максимальная температура - максимум температуры воздуха на высоте 2 м над землей.
R - Количество осадков - Количество выпавших осадков за период времени, мм. При наведении курсора мыши на число - период времени, за который выпало указанное количество осадков.
R24 - Количество осадков - Количество выпавших осадков за 24 часа, мм.
S - Снежный покров - Высота снежного покрова, см. При наведении курсора мыши на число - состояние снежного покрова и степень покрытия местности в баллах.